Location: Nakusp
(50.2330°N, 117.8000°W)
Time: 16:20:48
(UTC-07:00)

Cosmos 1939 Rocket - Visible Passes

Search period start: 19 April 2018 00:00
Search period end: 29 April 2018 00:00
Orbit: 534 x 585 km, 97.5° (Epoch: 19 April)

Date Brightness Start Highest point End Pass type
(mag) Time Alt. Az. Time Alt. Az. Time Alt. Az.
19 Apr 5.3 21:31:42 10° SW 21:34:37 20° W 21:37:36 10° NW visible
20 Apr 5.2 21:30:13 10° SW 21:33:12 21° W 21:36:14 10° NW visible
21 Apr 5.2 21:28:45 10° SW 21:31:47 22° W 21:34:52 10° NW visible
22 Apr 5.2 21:27:17 10° SW 21:30:22 22° W 21:33:30 10° NW visible
23 Apr 5.1 21:25:49 10° SSW 21:28:57 23° W 21:32:08 10° NW visible
24 Apr 5.1 21:24:20 10° SSW 21:27:31 24° W 21:30:46 10° NW visible
25 Apr 5.0 21:22:53 10° SSW 21:26:07 24° W 21:29:24 10° NW visible
26 Apr 5.0 21:21:25 10° SSW 21:24:41 25° W 21:28:02 10° NW visible
27 Apr 4.9 21:19:57 10° SSW 21:23:16 26° W 21:26:39 10° NW visible
28 Apr 4.9 21:18:29 10° SSW 21:21:51 27° W 21:25:17 10° NW visible
